Location: Braunsfelde
(53.4452°N, 14.5097°E)
Time: 23:08:50
(UTC+00:00)

Daily predictions for brighter satellites

Satellite Brightness Start Highest point End
(mag) Time Altitude Azimuth Time Altitude Azimuth Time Altitude Azimuth
Sich 1 4.0 15:21:11 10° N 15:24:47 25° ENE 15:28:22 10° ESE
ADEOS 3.6 15:19:35 10° SSE 15:24:49 89° E 15:30:05 10° NNW
SL-16 R/B 3.8 15:19:38 10° N 15:25:19 39° WNW 15:31:00 10° SW
NOSS 2-2 (C) 4.1 15:21:05 10° NW 15:25:41 63° NE 15:32:03 10° ESE
deb Kosmos-1763 3.9 15:23:05 10° SSW 15:26:29 86° ESE 15:29:56 10° NNE
Cosmos 2084 4.2 15:23:04 10° NW 15:27:16 59° SW 15:31:37 10° SSE
ARGOS 4.4 15:24:07 10° E 15:27:51 19° NE 15:31:36 10° N
Meteor 2-2 Rocket 4.4 15:22:11 10° S 15:28:09 70° E 15:34:06 10° NNE
NOAA 11 4.2 15:22:47 10° SSE 15:28:13 81° ENE 15:33:42 10° NNW
Cosmos 2221 2.7 15:24:21 10° S 15:28:32 55° E 15:32:46 10° NNE
Cosmos 1805 Rocket 4.2 15:25:26 10° N 15:29:24 33° ENE 15:33:20 10° SE
Cosmos 1833 Rocket 3.6 15:25:19 10° SSE 15:30:12 32° ESE 15:35:07 10° NE
Cosmos 1939 Rocket 3.4 15:27:17 10° SE 15:31:04 37° ENE 15:34:50 10° N
YAOGAN 6 4.0 15:28:00 10° S 15:31:30 44° W 15:35:04 10° NNW
COSMOS 2406 4.3 15:29:06 10° SSE 15:33:51 27° ESE 15:38:35 10° NE
Cosmos 2219 Rocket 4.0 15:32:13 10° NNW 15:35:11 14° N 15:38:10 10° NE
USA 267 4.1 15:29:56 10° ENE 15:35:57 37° SE 15:41:56 10° SSW
Cosmos 1092 Rocket 4.2 15:29:46 10° N 15:35:58 50° ENE 15:42:05 10° SSE
Cosmos 1842 Rocket 3.7 15:33:39 10° S 15:38:03 60° E 15:42:29 10° NNE
GEOS 3 Rocket 4.4 15:33:53 10° E 15:38:28 32° NNE 15:43:02 10° NW
Meteor 1-31 Rocket 3.9 15:37:12 10° S 15:40:53 47° W 15:44:37 10° NNW
USA 307 2.9 15:37:20 10° W 15:41:37 85° N 15:45:54 10° E
CZ-4C R/B 2.9 15:35:02 10° NW 15:41:42 64° NE 15:49:43 10° ESE
CZ-2C R/B 2.8 15:37:33 10° SSE 15:42:24 78° ENE 15:47:10 10° NNW
H-2A R/B 4.5 15:39:39 10° SSW 15:43:02 35° W 15:46:26 10° NNW
CZ-2C R/B 4.2 15:40:54 10° NE 15:43:38 14° E 15:46:21 10° ESE
Cosmos 1606 2.8 15:42:48 10° SSW 15:46:35 81° WNW 15:50:25 10° N
Cosmos 1782 4.0 15:45:41 10° SE 15:48:50 23° E 15:51:59 10° NE
Cosmos 1763 Rocket 3.8 15:43:59 10° S 15:48:51 48° ESE 15:53:47 10° NE
USA 229 DEB 4.4 15:43:23 10° NW 15:50:33 68° SW 15:58:13 10° SSE
USA 229 4.4 15:43:28 10° NW 15:50:39 69° SW 15:58:19 10° SSE
Cosmos 1500 3.8 15:48:15 10° N 15:51:41 33° ENE 15:55:06 10° SE
H-2A R/B 2.5 15:49:34 10° SE 15:54:14 37° ENE 15:58:49 10° N
CZ-4B R/B 3.8 15:49:50 10° ESE 15:54:34 33° ENE 15:59:16 10° N
Cosmos 2360 4.3 15:49:11 10° NNW 15:54:58 86° WSW 16:00:42 10° SSE
H-2A R/B 4.4 15:56:23 10° NE 15:56:23 10° NE 15:56:39 10° NNE
Cosmos 1340 Rocket 3.1 15:51:38 10° NNW 15:55:43 73° W 15:59:47 10° S
CZ-2D R/B 3.9 15:52:40 10° SE 15:56:06 32° ENE 15:59:32 10° N
Cosmos 841 Rocket 4.4 15:52:03 10° SSE 15:56:23 28° E 16:00:15 12° NE
Cosmos 1937 Rocket 3.5 15:52:26 10° NNW 15:57:48 82° ENE 16:03:08 10° SSE
NOSS 3-4 (A) 4.4 15:52:08 10° WNW 15:57:52 35° N 16:03:18 14° ENE
NOSS 3-4 (C) 4.4 15:52:14 10° WNW 15:57:56 35° N 16:03:22 14° ENE
SeaSat 1 3.3 15:53:28 10° NNE 15:58:11 46° NW 16:02:53 10° WSW
CZ-4C R/B 3.4 15:55:08 10° NNE 15:59:03 74° WNW 16:02:44 10° SSW
ATLAS CENTAUR R/B 2.8 15:55:22 10° W 15:59:19 32° NNW 16:03:18 11° NE
Meteor 1-20 Rocket 4.3 15:53:49 10° NNW 15:59:42 85° E 16:05:33 10° SSE
ATLAS 2AS CENTAUR R/B 3.7 15:53:09 10° W 16:00:25 41° NNW 16:06:35 13° NE
Meteor 2-21 4.5 15:55:39 10° N 16:01:40 56° ENE 16:07:36 10° SSE
Cosmos 1125 Rocket 4.4 15:57:33 10° NNW 16:01:59 27° NE 16:06:25 10° ESE
USA 308 2.9 15:59:54 10° W 16:04:10 82° N 16:07:37 15° E
NOSS 2-1 (C) 4.1 16:01:47 10° W 16:04:48 34° NNW 16:07:34 13° NE
COSMOS 2455 3.6 15:59:47 10° S 16:05:05 33° ESE 16:09:19 15° ENE
Cosmos 2034 Rocket 3.9 15:59:18 10° S 16:05:27 81° E 16:11:39 10° NNE
COSMO-SKYMED 1 4.1 16:04:26 15° ENE 16:05:32 17° E 16:08:21 10° SE
Lacrosse 5 rocket 1.2 16:01:43 10° WNW 16:05:32 69° NNE 16:09:12 12° ESE
SMAP 3.0 16:01:08 10° SSE 16:05:46 75° ENE 16:10:27 10° NNW
Cosmos 372 Rocket 4.0 16:00:42 10° NNW 16:05:55 66° ENE 16:11:09 10° SE
Cosmos 2360 Rocket 3.4 16:03:14 10° NNW 16:07:38 22° NNE 16:10:24 16° ENE
ATLAS CENTAUR R/B 3.5 15:59:45 10° SW 16:08:52 46° SSE 16:12:03 17° E
AQUARIUS 4.1 16:06:10 10° SSE 16:10:38 71° ENE 16:15:08 10° N
Cosmos 1633 Rocket 3.7 16:07:51 10° N 16:11:51 33° ENE 16:15:50 10° SE
Cosmos 44 Rocket 3.5 16:07:10 10° NW 16:12:05 52° NE 16:16:48 10° ESE
USA 234 3.6 16:05:45 10° SE 16:12:16 68° SSW 16:18:48 10° WNW
SL-24 R/B - RUBIN 2 3.8 16:09:01 10° NW 16:13:41 76° SW 16:18:01 10° SE
NOSS 2-1 (D) 4.2 16:11:13 10° W 16:14:11 31° NNW 16:16:39 15° NNE
ISS -2.2 16:12:54 10° W 16:16:03 35° SSW 16:19:10 10° SE
NOAA 6 4.0 16:12:50 10° SSE 16:17:59 89° WSW 16:23:09 10° NNW
NOSS 2-2 (D) 4.5 16:14:03 10° NW 16:18:54 74° SW 16:25:43 10° SE
YAOGAN 1 3.8 16:19:40 20° ENE 16:19:46 20° ENE 16:22:54 10° NNE
COSMOS 2428 4.4 16:16:26 10° NNW 16:20:01 16° NNE 16:21:52 14° NE
Cosmos 1666 3.1 16:17:30 10° N 16:21:02 38° ENE 16:24:31 10° SE
CZ-4 R/B 3.2 16:23:29 15° NNE 16:23:29 15° NNE 16:24:44 10° NNE
Meteor 2-14 Rocket 4.4 16:17:47 10° N 16:23:56 79° ENE 16:30:02 10° SSE
Cosmos 2026 Rocket 3.9 16:18:53 10° N 16:25:05 84° ENE 16:31:11 10° SSE
Cosmos 1634 Rocket 4.1 16:19:05 10° S 16:25:15 59° E 16:31:29 10° NNE
Cosmos 1151 Rocket 3.8 16:21:47 10° SSE 16:25:36 31° E 16:27:48 20° NE
Cosmos 1743 Rocket 4.5 16:23:05 10° NNW 16:27:17 51° W 16:31:28 10° S
PSLV R/B 3.5 16:24:13 10° SSE 16:27:54 74° ENE 16:31:41 10° NNW
Cosmos 2322 Rocket 2.8 16:23:32 10° NNW 16:28:44 34° NE 16:32:01 20° E
Cosmos 1697 Rocket 3.7 16:24:04 10° NW 16:29:27 48° WSW 16:34:49 10° S
USA 305 2.8 16:25:56 10° W 16:30:13 84° N 16:32:40 25° E
CZ-4B R/B 4.3 16:27:00 10° SSW 16:30:45 39° W 16:34:21 10° NNW
Cosmos 1933 3.2 16:28:08 10° S 16:32:12 86° E 16:36:15 10° NNE
SL-08 R/B 4.0 16:28:49 10° N 16:33:27 54° WNW 16:37:58 10° SW
Cosmos 1980 Rocket 2.4 16:28:42 10° NW 16:34:24 77° WSW 16:40:01 10° SSE
Okean O Rocket 1.8 16:33:14 10° SE 16:37:30 46° ENE 16:41:47 10° N
Cosmos 2369 4.3 16:33:01 10° NW 16:38:41 60° WSW 16:44:17 10° SSE
Cosmos 1666 Rocket 3.5 16:34:15 10° N 16:38:43 67° ENE 16:43:07 10° SSE
Cosmos 540 Rocket 3.4 16:34:50 10° SSW 16:39:54 73° ESE 16:43:47 18° NNE
Cosmos 1470 Rocket 4.0 16:37:44 10° N 16:41:57 39° ENE 16:46:09 10° SE
MOS 1-B 4.3 16:37:51 10° SSE 16:43:39 87° ENE 16:49:29 10° NNW
Meteor 1-5 Rocket 4.3 16:38:26 10° N 16:44:28 73° ENE 16:50:22 10° SSE
Cosmos 1328 Rocket 4.1 16:42:01 10° SSE 16:46:04 36° E 16:46:57 33° ENE
SJ-11-01 4.3 16:41:33 10° SSE 16:46:11 57° ENE 16:50:51 10° N
Meteor 1-14 Rocket 4.2 16:40:53 10° NNW 16:46:45 81° ENE 16:52:41 10° SSE
SL-16 R/B 2.3 16:41:49 10° NNW 16:47:22 51° NE 16:51:23 18° ESE
Cosmos 1812 2.8 16:43:45 10° S 16:47:29 51° E 16:48:48 34° NE
Cosmos 1655 Rocket 4.2 16:41:55 10° N 16:48:08 49° ENE 16:54:17 10° SE
Meteor 2-21 Rocket 4.4 16:42:15 10° N 16:48:24 88° E 16:54:29 10° S
ERBS 2.7 16:46:09 10° W 16:49:15 43° N 16:49:40 40° NNE
Cosmos 2237 Rocket 4.0 16:46:34 10° NNW 16:49:33 14° NNE 16:50:40 14° NNE
Cosmos 2298 Rocket 4.0 16:47:08 10° NNW 16:52:25 58° ENE 16:57:39 10° SE
Cosmos 1570 Rocket 4.3 16:48:21 10° S 16:53:17 43° ESE 16:55:00 32° ENE
Cosmos 2082 Rocket 2.2 16:48:17 10° SSW 16:53:52 60° ESE 16:56:54 27° NE
SKYMED 2 3.9 16:53:03 36° ENE 16:54:02 42° E 16:58:09 10° S
Cosmos 1814 Rocket 4.2 16:50:12 10° S 16:55:13 50° ESE 16:57:16 32° NE
MOS 1-B Rocket 4.0 16:53:52 10° NNE 16:59:41 67° ESE 17:06:15 10° S
Cosmos 2333 Rocket 3.2 16:55:28 10° NNW 17:00:19 27° NE 17:00:43 26° NE
Cosmos 2278 4.1 16:56:42 10° NW 17:02:24 67° WSW 17:08:01 10° SSE
USA 306 2.8 16:58:08 10° W 17:02:24 88° SSW 17:03:34 47° ESE
Sich 1 4.2 16:58:34 10° NNW 17:02:39 44° W 17:06:44 10° SSW
Cosmos 1818 3.6 16:58:24 10° NW 17:03:55 82° SW 17:08:58 12° SE
ARGOS 3.0 17:02:00 10° SSE 17:07:25 83° ENE 17:12:51 10° NNW
SL-16 R/B 4.2 17:06:28 10° NNW 17:09:11 13° N 17:10:35 12° NNE
Cosmos 1833 Rocket 3.1 17:08:18 10° SW 17:13:51 59° NW 17:17:33 21° NNE
GEOS 3 Rocket 3.5 17:13:44 34° ESE 17:16:04 77° NE 17:21:17 10° NW
COSMOS 2406 3.5 17:12:01 10° SW 17:17:45 68° NW 17:21:11 25° NNE
deb Chang Zheng 4 3.8 17:14:30 10° S 17:18:47 67° WSW 17:23:07 10° NNW
USA 267 3.2 17:16:34 36° ENE 17:19:31 85° SSE 17:26:05 10° WSW
Cosmos 2219 Rocket 3.3 17:16:19 10° NNW 17:20:35 27° NNE 17:20:35 27° NNE
USA 307 2.8 17:17:18 10° WNW 17:21:35 82° SSW 17:21:59 71° SE
CZ-2C R/B 2.4 17:21:47 26° NNE 17:24:51 79° ESE 17:30:02 10° SSW
Cosmos 1782 4.0 17:21:06 10° SW 17:24:54 41° WNW 17:27:49 16° N
IRS-1C Rocket 4.2 17:28:34 51° NE 17:28:34 51° NE 17:33:17 10° N
Cosmos 2208 Rocket 4.0 17:23:12 10° SSW 17:28:33 65° ESE 17:29:27 56° ENE
Cosmos 2150 Rocket 3.9 17:24:13 10° NNW 17:29:25 85° WSW 17:33:12 19° SSE
SL-08 RB Rocket 3.6 17:25:10 10° SSE 17:29:48 87° WSW 17:34:27 10° NNW
H-2A R/B 4.3 17:32:55 19° N 17:32:55 19° N 17:34:08 10° N
CZ-4C R/B 3.7 17:23:34 10° NW 17:30:25 52° SW 17:38:25 10° SSE
H-2A R/B 3.3 17:28:49 10° SSW 17:33:39 41° W 17:38:25 10° NNW
Meteor 2-6 Rocket 4.1 17:28:00 10° S 17:33:44 85° ESE 17:36:56 27° NNE
CZ-4B R/B 3.9 17:29:42 10° S 17:34:58 52° W 17:40:11 10° NNW
Cosmos 841 Rocket 4.0 17:32:54 10° SW 17:37:58 56° WNW 17:40:22 30° N
ATLAS CENTAUR R/B 3.4 17:35:59 10° NW 17:39:25 21° N 17:39:25 21° N
COSMO-SKYMED 1 2.7 17:41:39 63° NNW 17:42:11 72° WNW 17:46:31 10° SSW
USA 308 3.2 17:39:51 10° WNW 17:43:39 64° WSW 17:43:39 64° WSW
Lacrosse 5 rocket 2.4 17:40:51 10° WNW 17:44:30 38° SW 17:44:49 37° SSW
Cosmos 1125 Rocket 3.7 17:39:21 10° NNW 17:44:35 72° WSW 17:47:31 27° S
Cosmos 2237 4.1 17:39:46 10° NNW 17:45:32 78° ENE 17:46:08 69° ESE
NOSS 3-4 (A) 3.9 17:43:40 10° NW 17:50:06 52° NNE 17:50:45 51° NE
NOSS 3-4 (C) 3.9 17:43:46 10° NW 17:50:11 52° NNE 17:50:49 51° NE
COSMOS 2455 3.1 17:44:41 10° SW 17:50:41 67° NW 17:52:28 45° NNE
ISS -0.6 17:51:27 10° SW 17:52:07 10° SW 17:52:48 10° SSW
Cosmos 2279 Rocket 4.5 17:46:06 10° SSW 17:52:13 59° WNW 17:58:22 10° N
Cosmos 2266 Rocket 4.2 17:46:07 10° NNW 17:52:29 74° W 17:58:52 10° S
Cosmos 2360 Rocket 2.2 17:47:01 10° NNW 17:52:12 64° NNE 17:52:12 64° NNE
ATLAS 2AS CENTAUR R/B 3.4 17:45:56 10° NW 17:53:04 41° NNE 17:54:01 40° NNE
Meteor 2-15 Rocket 4.3 17:48:00 10° S 17:54:06 80° E 17:55:53 49° NNE
YAOGAN 1 3.5 17:56:50 41° NW 17:56:50 41° NW 17:59:47 10° NNW
Meteor 1-11 Rocket 3.9 17:50:49 10° NNW 17:56:26 72° W 18:02:07 10° S
CZ-4 R/B 3.6 17:59:29 18° NNW 17:59:29 18° NNW 18:00:34 10° NNW
Meteor 1-10 Rocket 4.2 17:53:40 10° SSW 17:59:27 84° WNW 18:00:37 58° N
COSMOS 2428 4.0 18:00:38 10° NNW 18:03:52 29° N 18:03:52 29° N
USA 305 4.3 18:05:51 10° WNW 18:08:40 37° W 18:08:40 37° W
Cosmos 2322 Rocket 2.5 18:07:32 10° NW 18:13:11 64° WSW 18:13:54 58° SSW
Okean O Rocket 3.7 18:10:16 10° SSW 18:14:02 27° W 18:17:51 10° NW
SL-16 R/B 3.4 18:26:11 10° NW 18:31:23 38° WSW 18:33:21 29° SSW
Cosmos 2237 Rocket 4.2 18:30:42 10° NNW 18:32:29 18° N 18:32:29 18° N
Cosmos 2082 Rocket 3.4 18:33:04 10° WSW 18:38:17 36° NW 18:38:46 35° NNW
ATLAS CENTAUR R/B 4.0 18:34:23 10° W 18:37:45 28° W 18:37:45 28° W
Cosmos 2333 Rocket 3.5 18:39:36 10° NNW 18:42:44 34° NNW 18:42:44 34° NNW
USA 267 3.8 19:03:55 53° WNW 19:03:55 53° WNW 19:08:58 10° W
Cosmos 2219 Rocket 4.0 19:00:08 10° NNW 19:02:19 24° NNW 19:02:19 24° NNW
Cosmos 2360 Rocket 4.4 19:31:35 10° NW 19:33:59 21° WNW 19:33:59 21° WNW
ATLAS 2AS CENTAUR R/B 4.1 19:37:34 10° NW 19:41:26 33° NW 19:41:26 33° NW
